QPF
0.13 0.15 0.09 0.05 0.06 0.04 0.02 0.02 0.00 0.00 0.00 0.00 0.00 0.00 0.00 0.01 0.01 0.00 0.00 0.00 0.00 0.00 0.00 0.01 0.01 0.02 0.03 0.03 0.03 0.02 0.02 0.02 0.01 0.01 0.01 0.01 0.01 0.01 0.01 0.01 0.00 0.00 0.00 0.00
0.11 0.11 0.05 0.03 0.06 0.06 0.04 0.04 0.01 0.00 0.00 0.01 0.01 0.00 0.00 0.00 0.01 0.00 0.00 0.00 0.00 0.00 0.00 0.00 0.00 0.01 0.01 0.01 0.02 0.02 0.02 0.02 0.02 0.02 0.02 0.01 0.01 0.01 0.01 0.01 0.01 0.00 0.00 0.01
0.08 0.06 0.04 0.04 0.07 0.08 0.05 0.04 0.02 0.01 0.01 0.01 0.01 0.01 0.00 0.00 0.00 0.00 0.00 0.00 0.00 0.00 0.00 0.00 0.00 0.00 0.00 0.00 0.00 0.01 0.01 0.02 0.02 0.02 0.03 0.02 0.02 0.01 0.01 0.01 0.01 0.02 0.02 0.02
0.04 0.04 0.04 0.04 0.06 0.07 0.05 0.02 0.03 0.02 0.01 0.01 0.01 0.01 0.00 0.00 0.00 0.00 0.00 0.00 0.00 0.00 0.00 0.00 0.00 0.00 0.00 0.00 0.00 0.00 0.01 0.01 0.01 0.02 0.01 0.01 0.01 0.01 0.02 0.02 0.03 0.03 0.04 0.03
0.04 0.04 0.04 0.04 0.04 0.05 0.04 0.02 0.03 0.04 0.02 0.01 0.00 0.01 0.00 0.00 0.00 0.00 0.00 0.00 0.00 0.00 0.00 0.00 0.00 0.00 0.00 0.00 0.00 0.00 0.01 0.01 0.01 0.01 0.01 0.01 0.01 0.01 0.01 0.02 0.02 0.02 0.02 0.02
0.03 0.03 0.03 0.03 0.04 0.05 0.05 0.05 0.06 0.06 0.06 0.04 0.00 0.00 0.00 0.00 0.00 0.00 0.00 0.00 0.00 0.00 0.00 0.00 0.00 0.00 0.00 0.00 0.00 0.00 0.00 0.00 0.00 0.01 0.01 0.01 0.01 0.01 0.01 0.01 0.01 0.02 0.02 0.01
0.05 0.04 0.03 0.03 0.04 0.07 0.07 0.10 0.14 0.14 0.10 0.03 0.00 0.00 0.00 0.00 0.00 0.00 0.00 0.00 0.00 0.00 0.00 0.00 0.00 0.00 0.00 0.00 0.00 0.00 0.00 0.00 0.00 0.00 0.01 0.01 0.01 0.02 0.02 0.02 0.02 0.02 0.01 0.01
0.06 0.05 0.04 0.03 0.03 0.07 0.06 0.07 0.10 0.08 0.03 0.00 0.00 0.00 0.00 0.00 0.00 0.00 0.00 0.00 0.00 0.00 0.00 0.00 0.00 0.00 0.00 0.00 0.00 0.00 0.00 0.00 0.00 0.00 0.01 0.01 0.01 0.01 0.02 0.02 0.02 0.02 0.02 0.01
0.04 0.05 0.04 0.03 0.02 0.03 0.05 0.04 0.05 0.06 0.02 0.00 0.00 0.00 0.00 0.00 0.00 0.00 0.00 0.00 0.00 0.00 0.00 0.00 0.00 0.00 0.00 0.00 0.00 0.00 0.00 0.00 0.00 0.00 0.00 0.00 0.00 0.00 0.00 0.01 0.01 0.01 0.01 0.01
0.04 0.05 0.05 0.05 0.03 0.02 0.03 0.02 0.04 0.05 0.03 0.01 0.00 0.00 0.00 0.00 0.00 0.00 0.00 0.00 0.00 0.00 0.00 0.00 0.00 0.00 0.00 0.00 0.00 0.00 0.00 0.00 0.00 0.00 0.00 0.00 0.00 0.00 0.00 0.00 0.00 0.00 0.00 0.00
0.02 0.05 0.05 0.06 0.05 0.02 0.02 0.03 0.04 0.04 0.02 0.01 0.00 0.00 0.00 0.00 0.00 0.00 0.00 0.00 0.00 0.00 0.00 0.00 0.00 0.00 0.00 0.00 0.00 0.00 0.00 0.00 0.00 0.00 0.00 0.00 0.00 0.00 0.00 0.00 0.00 0.00 0.00 0.00
0.03 0.04 0.04 0.04 0.03 0.01 0.01 0.02 0.02 0.03 0.01 0.00 0.00 0.00 0.00 0.00 0.00 0.00 0.00 0.00 0.00 0.00 0.00 0.00 0.00 0.00 0.00 0.00 0.00 0.00 0.00 0.00 0.00 0.00 0.00 0.00 0.00 0.00 0.00 0.00 0.00 0.00 0.00 0.00
0.03 0.04 0.03 0.04 0.03 0.02 0.01 0.01 0.01 0.01 0.01 0.01 0.00 0.00 0.00 0.00 0.00 0.00 0.00 0.00 0.00 0.00 0.00 0.00 0.00 0.00 0.00 0.00 0.00 0.00 0.00 0.00 0.00 0.00 0.00 0.00 0.00 0.00 0.00 0.00 0.00 0.00 0.00 0.00
0.05 0.02 0.01 0.01 0.02 0.01 0.01 0.00 0.00 0.01 0.01 0.01 0.00 0.00 0.00 0.00 0.00 0.00 0.00 0.00 0.00 0.00 0.00 0.00 0.00 0.00 0.00 0.00 0.00 0.00 0.00 0.00 0.00 0.00 0.00 0.00 0.00 0.00 0.00 0.00 0.00 0.00 0.00 0.00
0.06 0.02 0.00 0.00 0.00 0.00 0.00 0.00 0.00 0.00 0.00 0.00 0.00 0.00 0.00 0.00 0.00 0.00 0.00 0.00 0.00 0.00 0.00 0.00 0.00 0.00 0.00 0.00 0.00 0.00 0.00 0.00 0.00 0.00 0.00 0.00 0.00 0.00 0.00 0.00 0.00 0.00 0.00 0.00
0.03 0.02 0.01 0.00 0.00 0.00 0.00 0.00 0.00 0.00 0.00 0.00 0.00 0.00 0.00 0.00 0.00 0.00 0.00 0.00 0.00 0.00 0.00 0.00 0.00 0.00 0.00 0.00 0.00 0.00 0.00 0.00 0.00 0.00 0.00 0.00 0.00 0.00 0.00 0.00 0.00 0.00 0.00 0.00
0.02 0.01 0.01 0.01 0.00 0.00 0.00 0.00 0.00 0.00 0.00 0.00 0.00 0.00 0.00 0.00 0.00 0.00 0.00 0.00 0.00 0.00 0.00 0.00 0.00 0.00 0.00 0.00 0.00 0.00 0.00 0.00 0.00 0.00 0.00 0.00 0.00 0.00 0.00 0.00 0.00 0.00 0.00 0.00
0.02 0.01 0.01 0.01 0.01 0.01 0.00 0.00 0.00 0.00 0.00 0.00 0.00 0.00 0.00 0.00 0.00 0.00 0.00 0.00 0.00 0.00 0.00 0.00 0.00 0.00 0.00 0.00 0.00 0.00 0.00 0.00 0.00 0.00 0.00 0.00 0.00 0.00 0.00 0.00 0.00 0.00 0.00 0.00
0.00 0.01 0.02 0.02 0.01 0.01 0.00 0.00 0.00 0.00 0.00 0.00 0.00 0.00 0.00 0.00 0.00 0.00 0.00 0.00 0.00 0.00 0.00 0.00 0.00 0.00 0.00 0.00 0.00 0.00 0.00 0.00 0.00 0.00 0.00 0.00 0.00 0.00 0.00 0.00 0.00 0.00 0.00 0.00
0.00 0.00 0.02 0.02 0.01 0.00 0.00 0.00 0.00 0.00 0.00 0.00 0.00 0.00 0.00 0.00 0.00 0.00 0.00 0.00 0.00 0.00 0.00 0.00 0.00 0.00 0.00 0.00 0.00 0.00 0.00 0.00 0.00 0.00 0.00 0.00 0.00 0.00 0.00 0.00 0.00 0.00 0.00 0.00
0.01 0.01 0.02 0.01 0.01 0.00 0.00 0.00 0.00 0.00 0.00 0.00 0.00 0.00 0.00 0.00 0.00 0.00 0.00 0.00 0.00 0.00 0.00 0.00 0.00 0.00 0.00 0.00 0.00 0.00 0.00 0.00 0.00 0.00 0.00 0.00 0.00 0.00 0.00 0.00 0.00 0.00 0.00 0.00
0.01 0.01 0.01 0.01 0.02 0.00 0.00 0.00 0.00 0.00 0.00 0.00 0.00 0.00 0.00 0.00 0.00 0.00 0.00 0.00 0.00 0.00 0.00 0.00 0.00 0.00 0.00 0.00 0.00 0.00 0.00 0.00 0.00 0.00 0.00 0.00 0.00 0.00 0.00 0.00 0.00 0.00 0.00 0.00
0.01 0.01 0.00 0.00 0.00 0.00 0.00 0.00 0.00 0.01 0.00 0.00 0.00 0.01 0.00 0.00 0.01 0.01 0.01 0.00 0.00 0.00 0.01 0.01 0.00 0.00 0.00 0.00 0.00 0.00 0.00 0.00 0.00 0.00 0.00 0.00 0.00 0.00 0.00 0.00 0.00 0.00 0.00 0.00
0.01 0.01 0.00 0.00 0.00 0.00 0.00 0.00 0.00 0.00 0.00 0.01 0.01 0.01 0.01 0.01 0.01 0.01 0.01 0.01 0.01 0.01 0.01 0.01 0.01 0.01 0.00 0.00 0.00 0.00 0.00 0.00 0.00 0.00 0.00 0.00 0.00 0.00 0.00 0.00 0.00 0.00 0.00 0.00
0.02 0.01 0.01 0.01 0.00 0.00 0.00 0.00 0.00 0.00 0.00 0.01 0.01 0.01 0.01 0.01 0.01 0.01 0.01 0.01 0.01 0.01 0.01 0.01 0.01 0.00 0.00 0.00 0.00 0.00 0.00 0.00 0.00 0.00 0.00 0.00 0.00 0.00 0.00 0.00 0.00 0.00 0.00 0.00
0.01 0.02 0.02 0.01 0.01 0.00 0.00 0.00 0.00 0.00 0.00 0.00 0.00 0.01 0.01 0.00 0.00 0.00 0.00 0.00 0.00 0.00 0.00 0.00 0.00 0.00 0.00 0.00 0.00 0.00 0.00 0.00 0.00 0.00 0.00 0.00 0.00 0.00 0.00 0.00 0.00 0.00 0.00 0.00
MSLP
1014.98 1014.94 1014.86 1014.77 1014.69 1014.65 1014.68 1014.80 1014.98 1015.20 1015.44 1015.65 1015.80 1015.86 1015.84 1015.74 1015.58 1015.40 1015.21 1015.04 1014.91 1014.82 1014.76 1014.72 1014.70 1014.69 1014.69 1014.73 1014.80 1014.93 1015.14 1015.41 1015.74 1016.11 1016.49 1016.86 1017.20 1017.49 1017.73 1017.94 1018.14 1018.35 1018.58 1018.84
1015.24 1015.11 1014.94 1014.77 1014.64 1014.59 1014.65 1014.82 1015.07 1015.37 1015.66 1015.89 1016.02 1016.02 1015.91 1015.70 1015.45 1015.18 1014.95 1014.78 1014.68 1014.64 1014.65 1014.68 1014.72 1014.74 1014.75 1014.76 1014.80 1014.88 1015.04 1015.27 1015.57 1015.91 1016.27 1016.62 1016.93 1017.19 1017.40 1017.57 1017.72 1017.88 1018.07 1018.30
1015.42 1015.22 1014.99 1014.77 1014.62 1014.58 1014.68 1014.92 1015.24 1015.60 1015.92 1016.14 1016.21 1016.12 1015.89 1015.55 1015.17 1014.81 1014.53 1014.34 1014.27 1014.30 1014.40 1014.52 1014.63 1014.71 1014.75 1014.77 1014.80 1014.86 1014.98 1015.17 1015.43 1015.75 1016.08 1016.41 1016.70 1016.93 1017.10 1017.24 1017.35 1017.46 1017.61 1017.79
1015.50 1015.26 1014.99 1014.76 1014.63 1014.65 1014.82 1015.12 1015.52 1015.91 1016.24 1016.41 1016.40 1016.19 1015.81 1015.32 1014.80 1014.33 1013.98 1013.78 1013.74 1013.84 1014.03 1014.26 1014.47 1014.63 1014.74 1014.79 1014.83 1014.87 1014.97 1015.13 1015.36 1015.65 1015.96 1016.27 1016.54 1016.75 1016.91 1017.01 1017.08 1017.16 1017.25 1017.39
1015.45 1015.20 1014.94 1014.75 1014.68 1014.78 1015.03 1015.42 1015.87 1016.30 1016.60 1016.72 1016.60 1016.25 1015.71 1015.05 1014.39 1013.81 1013.39 1013.18 1013.17 1013.34 1013.63 1013.97 1014.29 1014.56 1014.74 1014.85 1014.91 1014.97 1015.05 1015.18 1015.39 1015.65 1015.94 1016.23 1016.49 1016.70 1016.84 1016.93 1016.99 1017.03 1017.09 1017.17
1015.28 1015.05 1014.85 1014.73 1014.75 1014.95 1015.30 1015.77 1016.27 1016.71 1016.98 1017.02 1016.79 1016.29 1015.60 1014.80 1014.01 1013.34 1012.86 1012.63 1012.66 1012.89 1013.28 1013.73 1014.17 1014.54 1014.81 1014.98 1015.09 1015.15 1015.23 1015.35 1015.53 1015.77 1016.04 1016.32 1016.58 1016.79 1016.95 1017.05 1017.10 1017.13 1017.15 1017.19
1015.01 1014.84 1014.71 1014.69 1014.82 1015.12 1015.57 1016.11 1016.64 1017.08 1017.31 1017.27 1016.94 1016.33 1015.52 1014.60 1013.72 1012.97 1012.47 1012.24 1012.30 1012.60 1013.07 1013.61 1014.15 1014.62 1014.97 1015.22 1015.36 1015.45 1015.54 1015.65 1015.81 1016.03 1016.29 1016.57 1016.83 1017.06 1017.24 1017.36 1017.43 1017.46 1017.46 1017.47
1014.71 1014.61 1014.57 1014.65 1014.87 1015.26 1015.78 1016.36 1016.92 1017.33 1017.52 1017.42 1017.01 1016.32 1015.44 1014.46 1013.53 1012.77 1012.26 1012.05 1012.14 1012.49 1013.03 1013.65 1014.27 1014.81 1015.24 1015.55 1015.74 1015.86 1015.96 1016.07 1016.23 1016.43 1016.68 1016.96 1017.24 1017.49 1017.69 1017.84 1017.94 1017.98 1017.99 1017.97
1014.42 1014.39 1014.43 1014.60 1014.90 1015.35 1015.91 1016.50 1017.03 1017.42 1017.56 1017.41 1016.96 1016.24 1015.34 1014.37 1013.45 1012.71 1012.23 1012.05 1012.18 1012.57 1013.15 1013.82 1014.49 1015.10 1015.59 1015.94 1016.19 1016.35 1016.47 1016.59 1016.75 1016.95 1017.20 1017.48 1017.76 1018.03 1018.26 1018.44 1018.57 1018.63 1018.65 1018.63
1014.19 1014.23 1014.34 1014.57 1014.91 1015.38 1015.93 1016.49 1016.98 1017.31 1017.41 1017.23 1016.76 1016.06 1015.20 1014.28 1013.44 1012.76 1012.34 1012.21 1012.37 1012.79 1013.38 1014.08 1014.78 1015.41 1015.94 1016.35 1016.65 1016.86 1017.02 1017.17 1017.34 1017.54 1017.79 1018.06 1018.35 1018.62 1018.87 1019.07 1019.22 1019.31 1019.34 1019.32
1014.06 1014.15 1014.32 1014.57 1014.93 1015.37 1015.87 1016.36 1016.77 1017.02 1017.07 1016.86 1016.42 1015.77 1014.99 1014.17 1013.43 1012.85 1012.51 1012.43 1012.62 1013.04 1013.64 1014.32 1015.02 1015.68 1016.24 1016.70 1017.05 1017.32 1017.54 1017.73 1017.93 1018.15 1018.39 1018.65 1018.93 1019.19 1019.44 1019.64 1019.80 1019.90 1019.95 1019.94
1014.01 1014.16 1014.36 1014.62 1014.95 1015.34 1015.75 1016.14 1016.45 1016.61 1016.59 1016.36 1015.94 1015.36 1014.69 1014.00 1013.38 1012.91 1012.65 1012.63 1012.84 1013.25 1013.81 1014.47 1015.16 1015.81 1016.41 1016.92 1017.34 1017.68 1017.97 1018.22 1018.46 1018.70 1018.94 1019.19 1019.44 1019.68 1019.90 1020.09 1020.24 1020.35 1020.41 1020.43
1014.01 1014.21 1014.43 1014.70 1014.99 1015.30 1015.61 1015.88 1016.06 1016.11 1016.02 1015.77 1015.37 1014.86 1014.29 1013.73 1013.24 1012.88 1012.70 1012.71 1012.92 1013.31 1013.84 1014.46 1015.12 1015.78 1016.40 1016.96 1017.46 1017.89 1018.26 1018.59 1018.88 1019.15 1019.39 1019.63 1019.84 1020.04 1020.23 1020.39 1020.53 1020.64 1020.72 1020.76
1014.02 1014.26 1014.51 1014.76 1015.02 1015.25 1015.45 1015.59 1015.63 1015.57 1015.40 1015.11 1014.73 1014.28 1013.80 1013.35 1012.97 1012.71 1012.60 1012.65 1012.85 1013.21 1013.69 1014.27 1014.89 1015.55 1016.19 1016.81 1017.39 1017.92 1018.38 1018.80 1019.15 1019.45 1019.71 1019.93 1020.12 1020.28 1020.43 1020.56 1020.68 1020.79 1020.89 1020.96
1013.97 1014.25 1014.52 1014.77 1014.99 1015.15 1015.24 1015.26 1015.18 1015.01 1014.75 1014.42 1014.04 1013.63 1013.23 1012.88 1012.60 1012.41 1012.35 1012.42 1012.62 1012.94 1013.38 1013.91 1014.51 1015.16 1015.83 1016.50 1017.16 1017.78 1018.34 1018.83 1019.26 1019.60 1019.88 1020.10 1020.27 1020.40 1020.52 1020.64 1020.75 1020.87 1020.99 1021.10
1013.83 1014.13 1014.42 1014.67 1014.85 1014.95 1014.96 1014.86 1014.68 1014.40 1014.07 1013.70 1013.31 1012.93 1012.59 1012.31 1012.11 1012.00 1011.98 1012.07 1012.27 1012.56 1012.96 1013.45 1014.03 1014.67 1015.36 1016.08 1016.80 1017.50 1018.15 1018.72 1019.21 1019.61 1019.92 1020.15 1020.32 1020.45 1020.56 1020.68 1020.80 1020.94 1021.10 1021.26
1013.60 1013.90 1014.19 1014.42 1014.57 1014.62 1014.55 1014.36 1014.08 1013.73 1013.33 1012.92 1012.53 1012.18 1011.89 1011.68 1011.55 1011.51 1011.54 1011.66 1011.86 1012.14 1012.52 1012.99 1013.54 1014.17 1014.88 1015.62 1016.39 1017.14 1017.85 1018.49 1019.04 1019.49 1019.84 1020.10 1020.30 1020.45 1020.59 1020.73 1020.89 1021.07 1021.27 1021.49
1013.31 1013.58 1013.83 1014.03 1014.13 1014.12 1013.98 1013.73 1013.37 1012.96 1012.52 1012.09 1011.71 1011.40 1011.16 1011.02 1010.97 1010.99 1011.09 1011.25 1011.48 1011.77 1012.14 1012.60 1013.13 1013.76 1014.45 1015.20 1015.98 1016.76 1017.51 1018.18 1018.78 1019.27 1019.67 1019.98 1020.23 1020.44 1020.63 1020.83 1021.04 1021.28 1021.53 1021.80
1013.04 1013.23 1013.40 1013.53 1013.56 1013.48 1013.27 1012.96 1012.55 1012.10 1011.65 1011.22 1010.87 1010.60 1010.44 1010.38 1010.41 1010.51 1010.69 1010.91 1011.19 1011.51 1011.89 1012.35 1012.88 1013.48 1014.15 1014.88 1015.65 1016.42 1017.16 1017.85 1018.47 1019.00 1019.45 1019.82 1020.13 1020.41 1020.68 1020.95 1021.24 1021.54 1021.85 1022.16
1012.88 1012.93 1012.98 1012.99 1012.92 1012.75 1012.48 1012.11 1011.67 1011.20 1010.75 1010.36 1010.05 1009.85 1009.76 1009.79 1009.92 1010.12 1010.38 1010.69 1011.02 1011.40 1011.81 1012.27 1012.79 1013.37 1014.01 1014.70 1015.42 1016.15 1016.86 1017.54 1018.16 1018.71 1019.19 1019.62 1020.01 1020.37 1020.72 1021.07 1021.43 1021.79 1022.15 1022.50
1012.88 1012.75 1012.64 1012.50 1012.30 1012.03 1011.67 1011.25 1010.80 1010.33 1009.91 1009.56 1009.32 1009.19 1009.20 1009.32 1009.54 1009.84 1010.20 1010.59 1011.00 1011.43 1011.88 1012.36 1012.87 1013.42 1014.02 1014.65 1015.30 1015.97 1016.63 1017.26 1017.86 1018.41 1018.92 1019.40 1019.85 1020.28 1020.71 1021.14 1021.56 1021.98 1022.38 1022.74
1013.07 1012.73 1012.42 1012.11 1011.77 1011.38 1010.95 1010.49 1010.03 1009.59 1009.21 1008.92 1008.74 1008.70 1008.79 1009.00 1009.32 1009.71 1010.15 1010.62 1011.10 1011.58 1012.07 1012.56 1013.06 1013.59 1014.13 1014.70 1015.28 1015.86 1016.45 1017.03 1017.58 1018.12 1018.64 1019.15 1019.64 1020.14 1020.63 1021.11 1021.59 1022.04 1022.45 1022.82
1013.40 1012.86 1012.35 1011.86 1011.37 1010.89 1010.39 1009.91 1009.45 1009.04 1008.72 1008.49 1008.39 1008.43 1008.59 1008.87 1009.25 1009.71 1010.21 1010.73 1011.27 1011.79 1012.30 1012.81 1013.30 1013.80 1014.29 1014.79 1015.30 1015.81 1016.32 1016.83 1017.34 1017.85 1018.36 1018.87 1019.40 1019.92 1020.45 1020.97 1021.48 1021.94 1022.36 1022.72
1013.79 1013.06 1012.37 1011.73 1011.12 1010.55 1010.02 1009.53 1009.11 1008.75 1008.49 1008.34 1008.30 1008.40 1008.61 1008.94 1009.35 1009.84 1010.36 1010.91 1011.46 1012.01 1012.53 1013.03 1013.51 1013.98 1014.43 1014.87 1015.31 1015.75 1016.19 1016.64 1017.10 1017.57 1018.07 1018.58 1019.11 1019.65 1020.19 1020.72 1021.23 1021.69 1022.10 1022.44
1014.10 1013.22 1012.40 1011.65 1010.97 1010.37 1009.83 1009.38 1009.01 1008.72 1008.53 1008.45 1008.48 1008.61 1008.85 1009.19 1009.60 1010.07 1010.58 1011.11 1011.65 1012.17 1012.68 1013.16 1013.62 1014.06 1014.47 1014.87 1015.26 1015.65 1016.03 1016.43 1016.85 1017.29 1017.76 1018.26 1018.78 1019.32 1019.86 1020.38 1020.88 1021.33 1021.71 1022.03
1014.20 1013.23 1012.35 1011.55 1010.86 1010.27 1009.78 1009.40 1009.11 1008.91 1008.81 1008.80 1008.88 1009.04 1009.28 1009.59 1009.97 1010.39 1010.84 1011.31 1011.79 1012.27 1012.73 1013.18 1013.60 1014.00 1014.38 1014.75 1015.10 1015.45 1015.80 1016.16 1016.55 1016.97 1017.42 1017.91 1018.42 1018.94 1019.47 1019.98 1020.46 1020.89 1021.25 1021.55
Thickness
5468 5473 5483 5495 5506 5515 5520 5526 5533 5542 5554 5558 5562 5571 5581 5590 5597 5604 5609 5616 5623 5632 5641 5647 5653 5658 5662 5665 5668 5671 5673 5674 5675 5675 5675 5675 5675 5676 5676 5676 5676 5676 5675 5674
5460 5466 5481 5493 5502 5509 5515 5519 5527 5538 5548 5553 5556 5563 5574 5583 5591 5599 5606 5611 5618 5625 5632 5639 5644 5649 5653 5657 5660 5663 5665 5667 5669 5670 5671 5671 5671 5670 5671 5671 5671 5671 5670 5669
5456 5468 5481 5489 5495 5500 5508 5514 5522 5531 5540 5547 5551 5556 5566 5579 5587 5594 5602 5610 5615 5620 5625 5629 5634 5638 5642 5646 5651 5655 5656 5658 5660 5662 5663 5663 5663 5664 5664 5664 5664 5664 5664 5663
5456 5468 5478 5485 5491 5497 5504 5515 5520 5526 5528 5530 5540 5539 5559 5571 5580 5591 5599 5605 5611 5615 5618 5621 5625 5629 5633 5637 5640 5644 5647 5649 5651 5654 5655 5656 5656 5656 5656 5656 5657 5657 5657 5657
5457 5467 5475 5482 5492 5497 5503 5513 5516 5518 5520 5522 5530 5534 5552 5566 5575 5592 5601 5603 5607 5610 5612 5615 5618 5621 5624 5627 5631 5634 5637 5639 5642 5644 5646 5647 5648 5648 5648 5648 5648 5649 5649 5649
5461 5469 5476 5484 5492 5498 5503 5506 5508 5508 5511 5517 5525 5528 5545 5560 5579 5591 5598 5601 5604 5604 5606 5608 5609 5612 5614 5617 5620 5624 5627 5629 5631 5634 5635 5637 5638 5638 5639 5639 5639 5640 5640 5640
5462 5470 5477 5484 5488 5493 5497 5496 5498 5502 5507 5515 5524 5529 5551 5571 5580 5587 5594 5597 5598 5598 5599 5600 5600 5603 5605 5607 5610 5613 5616 5617 5620 5622 5624 5626 5628 5629 5629 5630 5630 5630 5630 5630
5460 5467 5478 5485 5490 5491 5492 5496 5496 5500 5504 5507 5517 5524 5554 5572 5576 5580 5585 5588 5589 5589 5591 5593 5594 5594 5595 5597 5599 5602 5604 5606 5608 5610 5612 5614 5616 5618 5618 5619 5620 5620 5620 5620
5463 5470 5481 5487 5492 5493 5490 5491 5498 5492 5497 5504 5512 5524 5546 5568 5571 5575 5577 5578 5579 5581 5583 5584 5584 5584 5585 5587 5588 5591 5593 5594 5596 5598 5600 5602 5604 5606 5607 5607 5608 5609 5609 5610
5472 5473 5481 5486 5491 5492 5494 5494 5488 5487 5496 5508 5521 5526 5543 5562 5567 5569 5569 5569 5570 5572 5573 5573 5573 5574 5574 5576 5577 5579 5582 5583 5584 5586 5588 5590 5591 5593 5594 5595 5596 5597 5597 5598
5475 5474 5479 5484 5488 5491 5490 5492 5493 5492 5494 5500 5512 5533 5551 5557 5561 5561 5561 5562 5563 5564 5564 5563 5563 5563 5563 5564 5565 5567 5568 5570 5571 5573 5575 5577 5578 5580 5581 5582 5583 5584 5585 5585
5477 5474 5477 5483 5490 5495 5496 5496 5493 5494 5494 5489 5499 5529 5554 5551 5551 5553 5555 5557 5556 5556 5555 5553 5552 5551 5551 5552 5553 5555 5556 5558 5559 5561 5563 5564 5565 5567 5568 5569 5570 5571 5572 5573
5481 5476 5475 5480 5483 5488 5493 5496 5496 5494 5489 5483 5494 5528 5547 5545 5549 5550 5550 5550 5548 5547 5545 5543 5542 5542 5542 5542 5543 5544 5545 5547 5548 5549 5550 5551 5552 5554 5555 5556 5557 5558 5559 5559
5487 5479 5479 5485 5491 5490 5492 5495 5495 5492 5492 5492 5500 5522 5539 5544 5545 5546 5544 5544 5541 5540 5539 5536 5534 5534 5534 5534 5534 5534 5535 5536 5537 5538 5538 5539 5540 5541 5542 5543 5544 5545 5546 5546
5486 5480 5481 5485 5493 5491 5493 5497 5495 5497 5501 5499 5514 5518 5536 5539 5540 5540 5539 5538 5536 5534 5533 5532 5530 5528 5526 5525 5525 5526 5526 5526 5527 5527 5527 5527 5528 5529 5530 5531 5532 5533 5533 5534
5479 5480 5481 5486 5492 5489 5491 5495 5496 5499 5503 5505 5512 5522 5533 5533 5533 5533 5534 5533 5533 5533 5533 5530 5527 5523 5521 5520 5519 5518 5518 5517 5517 5517 5517 5517 5517 5518 5518 5519 5520 5520 5521 5521
5472 5474 5475 5475 5483 5490 5486 5499 5500 5500 5504 5508 5515 5530 5531 5531 5531 5532 5531 5530 5533 5534 5532 5529 5526 5523 5520 5517 5515 5512 5511 5509 5508 5508 5507 5507 5507 5508 5508 5508 5508 5509 5509 5509
5469 5470 5468 5470 5477 5477 5501 5509 5508 5506 5511 5512 5519 5525 5527 5531 5533 5532 5531 5531 5531 5531 5529 5527 5523 5519 5516 5512 5508 5506 5503 5502 5500 5499 5499 5498 5498 5498 5498 5498 5498 5497 5497 5497
5469 5471 5467 5465 5466 5476 5496 5505 5503 5501 5508 5514 5516 5522 5524 5523 5524 5526 5528 5529 5531 5530 5527 5524 5520 5516 5510 5506 5503 5499 5496 5494 5492 5491 5491 5491 5490 5489 5489 5488 5488 5487 5486 5486
5465 5467 5465 5463 5468 5472 5496 5506 5505 5505 5506 5516 5514 5515 5516 5515 5514 5523 5526 5524 5523 5521 5518 5515 5511 5507 5503 5500 5497 5493 5489 5487 5486 5486 5485 5484 5483 5482 5481 5480 5479 5478 5477 5476
5461 5460 5462 5463 5465 5473 5492 5498 5501 5496 5504 5512 5512 5512 5511 5510 5515 5517 5516 5515 5514 5512 5509 5507 5504 5500 5498 5494 5491 5487 5484 5483 5482 5480 5478 5477 5476 5475 5473 5472 5470 5469 5468 5466
5459 5459 5461 5462 5465 5474 5494 5492 5492 5496 5503 5506 5508 5509 5508 5507 5507 5506 5506 5504 5503 5501 5499 5498 5495 5492 5490 5488 5485 5482 5480 5478 5476 5473 5471 5470 5469 5468 5466 5464 5462 5461 5459 5457
5453 5460 5460 5464 5475 5484 5485 5488 5492 5494 5496 5500 5501 5503 5503 5502 5500 5499 5497 5495 5494 5493 5491 5490 5488 5485 5482 5481 5480 5478 5475 5472 5469 5467 5465 5464 5462 5461 5459 5457 5455 5453 5451 5449
5448 5454 5456 5460 5471 5477 5480 5482 5485 5488 5491 5493 5495 5496 5496 5496 5494 5492 5489 5487 5487 5486 5484 5483 5481 5479 5477 5475 5474 5473 5470 5467 5464 5462 5460 5458 5456 5454 5453 5452 5450 5448 5445 5443
5439 5443 5448 5456 5466 5472 5480 5480 5482 5483 5483 5484 5486 5488 5488 5488 5486 5484 5482 5481 5480 5480 5479 5477 5476 5475 5474 5471 5469 5467 5465 5462 5459 5457 5455 5453 5451 5449 5447 5446 5444 5443 5442 5441
5434 5439 5443 5453 5461 5464 5471 5474 5475 5476 5477 5477 5478 5479 5479 5479 5479 5478 5476 5475 5474 5473 5472 5471 5471 5470 5469 5467 5465 5463 5461 5459 5456 5453 5451 5449 5447 5444 5442 5440 5438 5438 5437 5437